[[{"header":{"parameterUnit":"m.s-1","parameterCategory":1,"la1":30.2991,"la2":30.254,"lo1":-89.0895,"lo2":-89.0444,"dy":0.0017,"dx":0.0017,"nx":28,"ny":28,"refTime":"2025-11-28T03:00:00:Z","depth":0,"parameterNumber":2,"parameterNumberName":"U-component_of_WINDS"},"data":[0,0,0,0,0,0,0,0,0,0,0,0,0,0,0,0,0,0,0,0,0,0,0,0,0,0,0,0,0,0,0,0,0,0,0,0,0,0,0,0,0,0,0,0,0,0,0,0,0,0,0,0,0,0,0,0,0,0,-4.5341,-4.5343,0,-4.5501,-4.5503,-4.5505,-4.5559,-4.5559,-4.5558,-4.5557,-4.5717,-4.5721,-4.5726,0,0,0,0,0,0,0,0,0,0,0,0,0,-4.508,-4.5084,-4.5341,-4.5343,-4.5345,-4.5501,-4.5503,-4.5505,-4.5559,-4.5559,-4.5558,-4.5557,-4.5715,-4.5721,-4.5726,0,0,0,0,0,0,0,0,0,0,0,0,0,-4.5212,-4.5086,-4.5341,-4.5391,-4.5397,-4.55,-4.5503,-4.5506,-4.5559,-4.5559,-4.5558,-4.5557,-4.5713,-4.572,-4.5727,-4.579,0,0,-4.5749,-4.5752,0,0,0,0,0,0,0,0,-4.5204,-4.5221,-4.5382,-4.5388,-4.5395,-4.5509,-4.5469,-4.5601,-4.556,-4.5498,-4.5557,-4.5556,-4.5648,-4.5661,-4.5692,-4.5798,-4.5805,-4.575,-4.5754,-4.5757,-4.576,0,0,0,0,0,0,0,-4.5195,-4.5215,-4.5404,-4.5384,-4.5392,-4.5405,-4.5422,-4.5494,-4.5576,-4.5503,-4.5507,-4.5526,-4.5651,-4.5685,-4.5697,-4.5807,-4.575,-4.5756,-4.5761,-4.5764,-4.5972,-4.5973,0,0,0,0,0,0,-4.5178,-4.5207,-4.5399,-4.5409,-4.5295,-4.541,-4.543,-4.5473,-4.5575,-4.559,-4.5526,-4.5528,-4.5673,-4.5688,-4.5702,-4.5783,-4.5757,-4.5764,-4.5768,-4.5971,-4.5972,-4.5973,0,0,0,0,0,0,-4.5172,-4.5195,-4.5393,-4.5309,-4.5335,-4.5416,-4.5464,-4.5477,-4.5511,-4.5593,-4.5608,-4.5546,-4.5673,-4.5692,-4.5768,-4.5789,-4.5767,-4.5774,-4.5969,-4.5971,-4.5973,-4.5943,0,0,0,0,0,0,-4.5164,-4.5192,-4.5218,-4.5309,-4.534,-4.5457,-4.5465,-4.5481,-4.5524,-4.5527,-4.5616,-4.5629,-4.5674,-4.5757,-4.5775,-4.5798,-4.578,-4.5968,-4.597,-4.5972,-4.5943,-4.5944,-4.5945,0,0,0,0,0,-4.5155,-4.5202,-4.5219,-4.5242,-4.5374,-4.5458,-4.5475,-4.5527,-4.5525,-4.5551,-4.5604,-4.5626,-4.5784,-4.5765,-4.5786,-4.5811,-4.5967,-4.5969,-4.5972,-4.5942,-4.5944,-4.5945,0,0,0,0,0,0,-4.511,-4.5215,-4.5235,-4.5314,-4.5377,-4.5467,-4.5501,-4.5527,-4.5591,-4.5591,-4.5651,-4.5671,-4.5742,-4.5784,-4.5761,-4.5877,-4.5876,-4.5883,-4.5847,-4.5849,-4.585,-4.5837,-4.5786,0,0,0,0,0,-4.5109,-4.517,-4.5259,-4.532,-4.5351,-4.5421,-4.5459,-4.5494,-4.5561,-4.5587,-4.5646,-4.5709,-4.5773,-4.5813,-4.5876,-4.595,-4.5969,-4.5977,-4.5978,-4.5979,-4.5984,-4.6025,-4.6029,-4.5982,-4.5982,-4.5982,0,0,-4.5108,-4.5174,-4.5208,-4.5313,-4.5365,-4.5426,-4.5442,-4.5506,-4.5551,-4.5597,-4.5672,-4.5717,-4.5792,-4.5866,-4.5902,-4.5904,-4.6001,-4.5982,-4.5982,-4.5987,-4.6028,-4.6032,-4.6036,-4.5984,-4.5984,-4.5983,0,0,-4.5137,-4.5193,-4.525,-4.5303,-4.5384,-4.543,-4.5443,-4.5531,-4.5562,-4.564,-4.5675,-4.5729,-4.5838,-4.5889,-4.5929,-4.5978,-4.6001,-4.5997,-4.6002,-4.6041,-4.6045,-4.6048,-4.6065,-4.607,-4.6002,-4.6002,-4.6002,0,-4.5125,-4.5219,-4.5276,-4.5338,-4.5382,-4.5428,-4.5485,-4.5533,-4.5629,-4.5658,-4.5659,-4.5797,-4.585,-4.5937,-4.5949,-4.5981,-4.5997,-4.5987,-4.604,-4.6044,-4.6048,-4.6065,-4.6071,-4.6001,-4.6001,-4.6001,-4.6001,0,-4.52,-4.5265,-4.5301,-4.5394,-4.5443,-4.5501,-4.5565,-4.5608,-4.5638,-4.5684,-4.5761,-4.5827,-4.5904,-4.5928,-4.5957,-4.6019,-4.6017,-4.6029,-4.6029,-4.6051,-4.6067,-4.6074,-4.5999,-4.6,-4.6,-4.6,0,0,-4.5204,-4.5328,-4.534,-4.5383,-4.5475,-4.5526,-4.5586,-4.5663,-4.5698,-4.5763,-4.5814,-4.5905,-4.5917,-4.5962,-4.5998,-4.6033,-4.6066,-4.604,-4.6043,-4.6042,-4.6137,-4.6127,-4.6133,-4.6083,-4.6084,-4.6085,-4.613,0,-4.5244,-4.5356,-4.5408,-4.5496,-4.5556,-4.5601,-4.5653,-4.5715,-4.5759,-4.5815,-4.5864,-4.5928,-4.5938,-4.5966,-4.6002,-4.6054,-4.6086,-4.6052,-4.613,-4.6132,-4.6108,-4.6142,-4.6132,-4.6171,-4.6137,-4.6138,-4.6139,0,-4.5306,-4.5372,-4.5466,-4.5551,-4.5578,-4.5624,-4.5699,-4.5753,-4.5823,-4.5853,-4.5904,-4.5939,-4.6004,-4.6,-4.6089,-4.6065,-4.61,-4.613,-4.6133,-4.6141,-4.6136,-4.615,-4.6185,-4.619,-4.615,-4.6149,-4.6148,0,-4.5297,-4.541,-4.5481,-4.5516,-4.5617,-4.5649,-4.5692,-4.5762,-4.5805,-4.5869,-4.5898,-4.5968,-4.6007,-4.606,-4.6113,-4.6106,-4.6197,-4.6198,-4.6222,-4.622,-4.6238,-4.6236,-4.6278,-4.6262,-4.6262,-4.6262,-4.6262,0,-4.5336,-4.5391,-4.5478,-4.5522,-4.5585,-4.5644,-4.5705,-4.5752,-4.5813,-4.5865,-4.5908,-4.5956,-4.6024,-4.608,-4.6122,-4.6188,-4.6205,-4.623,-4.6241,-4.6226,-4.6223,-4.6249,-4.6247,-4.6264,-4.6263,-4.6263,-4.6263,0,-4.5337,-4.5398,-4.5478,-4.5567,-4.5591,-4.5634,-4.571,-4.5753,-4.58,-4.5865,-4.5884,-4.5957,-4.6026,-4.6084,-4.6174,-4.6202,-4.627,-4.6283,-4.6247,-4.6252,-4.6272,-4.6269,-4.6331,-4.6342,-4.632,-4.632,-4.632,0,-4.5357,-4.5401,-4.5495,-4.5534,-4.5577,-4.5639,-4.5683,-4.5743,-4.5787,-4.5871,-4.5903,-4.5975,-4.6036,-4.6143,-4.6203,-4.6272,-4.6286,-4.6303,-4.6296,-4.628,-4.6285,-4.6281,-4.6285,-4.6302,-4.6302,-4.6302,-4.6302,0,-4.5385,-4.5413,-4.5476,-4.5549,-4.5601,-4.5661,-4.5722,-4.5751,-4.5822,-4.5869,-4.594,-4.5987,-4.608,-4.615,-4.6225,-4.6269,-4.6297,-4.6304,-4.6313,-4.6298,-4.6275,-4.6287,-4.6246,-4.6302,-4.6302,-4.6302,-4.6302,-4.6302,-4.5396,-4.5436,-4.5509,-4.5578,-4.563,-4.5687,-4.5731,-4.5785,-4.5845,-4.5926,-4.5957,-4.6029,-4.6099,-4.6203,-4.6247,-4.6303,-4.6308,-4.6321,-4.6324,-4.6326,-4.6323,-4.6267,-4.6318,-4.6318,-4.6318,-4.6318,-4.6318,0,-4.5425,-4.5475,-4.5537,-4.5622,-4.5675,-4.5699,-4.5768,-4.581,-4.5874,-4.5936,-4.5995,-4.6077,-4.6145,-4.6211,-4.6283,-4.6315,-4.633,-4.6332,-4.633,-4.6339,-4.6316,-4.63,-4.6319,-4.6319,-4.6319,-4.6319,-4.6319,-4.6319,-4.5447,-4.5517,-4.5553,-4.565,-4.5699,-4.5771,-4.5808,-4.586,-4.591,-4.5999,-4.6057,-4.61,-4.6164,-4.6241,-4.6304,-4.6322,-4.6346,-4.6344,-4.6365,-4.6342,-4.6341,-4.634,-4.6326,-4.6349,-4.6349,-4.6383,-4.6383,-4.6384]},{"header":{"parameterUnit":"m.s-1","parameterCategory":1,"la1":30.2991,"la2":30.254,"lo1":-89.0895,"lo2":-89.0444,"dy":0.0017,"dx":0.0017,"nx":28,"ny":28,"refTime":"2025-11-28T03:00:00:Z","depth":0,"parameterNumber":3,"parameterNumberName":"V-component_of_WINDS"},"data":[0,0,0,0,0,0,0,0,0,0,0,0,0,0,0,0,0,0,0,0,0,0,0,0,0,0,0,0,0,0,0,0,0,0,0,0,0,0,0,0,0,0,0,0,0,0,0,0,0,0,0,0,0,0,0,0,0,0,5.214,5.2141,0,5.2214,5.2215,5.2216,5.2176,5.2174,5.2172,5.217,5.2242,5.2245,5.2249,0,0,0,0,0,0,0,0,0,0,0,0,0,5.1962,5.1966,5.214,5.2141,5.2142,5.2214,5.2215,5.2216,5.2176,5.2174,5.2171,5.2169,5.2241,5.2245,5.225,0,0,0,0,0,0,0,0,0,0,0,0,0,5.2038,5.1967,5.214,5.2131,5.2131,5.2214,5.2215,5.2216,5.2177,5.2174,5.2171,5.2168,5.2239,5.2245,5.225,5.2345,0,0,5.2267,5.227,0,0,0,0,0,0,0,0,5.2034,5.2044,5.2131,5.2132,5.2132,5.2183,5.2178,5.2259,5.2177,5.2159,5.217,5.2166,5.2224,5.2231,5.2251,5.2348,5.2351,5.2268,5.2271,5.2274,5.2275,0,0,0,0,0,0,0,5.2028,5.2041,5.2169,5.2133,5.2133,5.2122,5.213,5.2194,5.2207,5.2161,5.2158,5.2167,5.2224,5.2246,5.2253,5.2352,5.2268,5.2273,5.2276,5.2278,5.253,5.2534,0,0,0,0,0,0,5.2024,5.2037,5.2167,5.2172,5.2075,5.2128,5.2136,5.2169,5.2207,5.221,5.217,5.2165,5.2238,5.2246,5.2255,5.2368,5.2274,5.2279,5.2282,5.2527,5.2531,5.2535,0,0,0,0,0,0,5.2021,5.2036,5.2164,5.2104,5.2119,5.2134,5.2172,5.2172,5.2194,5.2214,5.2216,5.219,5.2236,5.2247,5.2323,5.237,5.2282,5.2287,5.2523,5.2528,5.2533,5.2595,0,0,0,0,0,0,5.2016,5.2035,5.2072,5.2105,5.2123,5.2232,5.2175,5.2176,5.2205,5.2199,5.2233,5.2236,5.2234,5.2315,5.2329,5.2376,5.2291,5.2519,5.2525,5.2531,5.2588,5.2601,5.2612,0,0,0,0,0,5.2009,5.2086,5.2074,5.209,5.2169,5.2235,5.2245,5.2242,5.2209,5.2245,5.2258,5.2235,5.2363,5.2323,5.2338,5.2388,5.2516,5.2524,5.2531,5.2583,5.2599,5.2612,0,0,0,0,0,0,5.2056,5.209,5.2077,5.2167,5.2198,5.2228,5.2274,5.2259,5.2299,5.2293,5.2287,5.2295,5.2374,5.2388,5.2343,5.2481,5.2434,5.2445,5.2469,5.2483,5.2495,5.2489,5.2296,0,0,0,0,0,5.2078,5.2129,5.2155,5.2231,5.2248,5.2259,5.2287,5.2283,5.2315,5.2327,5.2345,5.2376,5.2423,5.2454,5.2499,5.2591,5.2597,5.2633,5.2644,5.2654,5.2663,5.2712,5.2728,5.2559,5.2559,5.2559,0,0,5.2121,5.2146,5.2178,5.2242,5.2266,5.2318,5.227,5.2327,5.2366,5.2336,5.2409,5.2423,5.2457,5.2542,5.258,5.2556,5.2711,5.2663,5.2671,5.2675,5.2721,5.2737,5.2751,5.2564,5.2563,5.2562,0,0,5.2227,5.2251,5.2317,5.2343,5.238,5.2387,5.2403,5.2435,5.2444,5.2518,5.2496,5.2541,5.2623,5.2648,5.2671,5.2788,5.2768,5.2803,5.2863,5.2911,5.2924,5.2936,5.2977,5.2991,5.2812,5.2812,5.2812,0,5.2275,5.2355,5.2353,5.2413,5.2441,5.2417,5.2484,5.2508,5.2558,5.2577,5.2551,5.2653,5.2674,5.2764,5.2793,5.2813,5.283,5.2798,5.2923,5.2935,5.2945,5.2984,5.2999,5.2816,5.2815,5.2815,5.2815,0,5.2413,5.2468,5.2517,5.2567,5.2601,5.2663,5.267,5.2704,5.2697,5.2706,5.2781,5.2806,5.2855,5.2876,5.287,5.2965,5.295,5.2924,5.2875,5.2966,5.3002,5.3016,5.2821,5.282,5.2819,5.2818,0,0,5.2549,5.2598,5.2616,5.2638,5.2678,5.272,5.2782,5.2831,5.286,5.2895,5.2946,5.3016,5.2992,5.3019,5.3015,5.3057,5.3147,5.3026,5.3027,5.3046,5.3253,5.3271,5.3289,5.3135,5.3138,5.314,5.325,0,5.2656,5.2765,5.2765,5.2865,5.2915,5.2895,5.2948,5.2978,5.2988,5.3032,5.3043,5.3092,5.3058,5.3074,5.3115,5.3128,5.3188,5.312,5.318,5.3183,5.3171,5.3308,5.3327,5.343,5.3264,5.3266,5.3268,0,5.2796,5.2837,5.2942,5.2975,5.2997,5.3045,5.309,5.3133,5.3166,5.317,5.3201,5.3191,5.3252,5.3204,5.3288,5.3241,5.3266,5.3276,5.328,5.3284,5.323,5.3314,5.3462,5.3477,5.329,5.3289,5.3287,0,5.2884,5.2965,5.3039,5.3059,5.3099,5.3133,5.3152,5.3182,5.3212,5.3251,5.327,5.3316,5.334,5.3376,5.3377,5.3342,5.3462,5.3414,5.3466,5.3466,5.3491,5.3489,5.3644,5.351,5.3509,5.3509,5.3509,0,5.3003,5.3068,5.3079,5.3124,5.3195,5.3195,5.3266,5.3281,5.3308,5.3355,5.334,5.3384,5.3384,5.3429,5.3431,5.35,5.3511,5.3515,5.3515,5.3516,5.3516,5.3531,5.3524,5.3513,5.3512,5.3511,5.3511,0,5.3112,5.3122,5.3201,5.3233,5.3243,5.3294,5.3322,5.3364,5.3373,5.3433,5.3447,5.3461,5.3513,5.3519,5.3579,5.358,5.3663,5.3655,5.3652,5.365,5.3702,5.3697,5.3871,5.3893,5.3746,5.3747,5.3748,0,5.3187,5.3237,5.3275,5.3306,5.3327,5.3376,5.3407,5.3408,5.3441,5.3483,5.352,5.3571,5.3611,5.3695,5.371,5.3755,5.3748,5.3806,5.3755,5.3754,5.3748,5.3744,5.3749,5.3815,5.3817,5.3818,5.3819,0,5.3319,5.3322,5.3367,5.3414,5.3452,5.3489,5.3523,5.3549,5.3555,5.3592,5.3645,5.3677,5.3739,5.3789,5.3834,5.3852,5.3836,5.3836,5.385,5.3851,5.3847,5.3849,5.3678,5.3831,5.383,5.3829,5.3829,5.3828,5.3413,5.3456,5.3489,5.354,5.3567,5.36,5.3641,5.3657,5.3702,5.3753,5.3751,5.381,5.3842,5.3901,5.3922,5.3967,5.3948,5.3969,5.3974,5.3979,5.3984,5.3841,5.3976,5.3975,5.3975,5.3975,5.3974,0,5.3543,5.3564,5.3611,5.366,5.37,5.3684,5.3722,5.3756,5.3808,5.384,5.3881,5.3942,5.399,5.401,5.4057,5.409,5.4084,5.4102,5.4099,5.4103,5.3999,5.3981,5.4106,5.4106,5.4106,5.4106,5.4106,5.4106,5.3615,5.3687,5.3694,5.3778,5.3798,5.3857,5.388,5.391,5.3935,5.4004,5.4045,5.4058,5.4085,5.4134,5.4178,5.4182,5.4199,5.4221,5.4222,5.4124,5.411,5.4098,5.4081,5.4225,5.4225,5.4322,5.4323,5.4324]}]]